TimeMST,TemperatureF,Dew PointF,Humidity,Sea Level PressureIn,VisibilityMPH,Wind Direction,Wind SpeedMPH,Gust SpeedMPH,PrecipitationIn,Events,Conditions,WindDirDegrees,DateUTC
12:15 AM,48.2,44.6,87,29.75,10.0,South,8.1,-,N/A,,Mostly Cloudy,170,2012-11-18 07:15:00
12:35 AM,48.2,42.8,82,29.75,10.0,SSE,4.6,-,N/A,,Mostly Cloudy,160,2012-11-18 07:35:00
12:55 AM,48.2,44.6,87,29.75,10.0,South,6.9,-,N/A,,Mostly Cloudy,170,2012-11-18 07:55:00
1:15 AM,48.2,44.6,87,29.76,10.0,SSE,5.8,-,N/A,,Mostly Cloudy,160,2012-11-18 08:15:00
1:35 AM,46.4,42.8,87,29.76,10.0,SSE,4.6,-,N/A,,Mostly Cloudy,150,2012-11-18 08:35:00
1:55 AM,48.2,44.6,87,29.77,10.0,WSW,5.8,-,N/A,,Mostly Cloudy,250,2012-11-18 08:55:00
2:15 AM,48.2,44.6,87,29.76,7.0,South,11.5,-,0.02,,Mostly Cloudy,180,2012-11-18 09:15:00
2:35 AM,48.2,44.6,87,29.77,10.0,South,3.5,-,0.02,,Overcast,190,2012-11-18 09:35:00
2:55 AM,50.0,44.6,82,29.78,10.0,SSE,9.2,-,0.02,,Mostly Cloudy,160,2012-11-18 09:55:00
3:15 AM,48.2,44.6,87,29.77,10.0,South,9.2,-,N/A,,Mostly Cloudy,170,2012-11-18 10:15:00
3:35 AM,48.2,44.6,87,29.78,10.0,SSE,9.2,-,N/A,,Scattered Clouds,160,2012-11-18 10:35:00
3:55 AM,48.2,44.6,87,29.78,10.0,SSE,8.1,-,N/A,,Mostly Cloudy,160,2012-11-18 10:55:00
4:15 AM,50.0,44.6,82,29.78,10.0,SSE,6.9,-,N/A,,Mostly Cloudy,160,2012-11-18 11:15:00
4:35 AM,48.2,44.6,87,29.76,10.0,SSE,5.8,-,N/A,,Mostly Cloudy,160,2012-11-18 11:35:00
4:55 AM,50.0,44.6,82,29.76,10.0,SSE,6.9,-,N/A,,Mostly Cloudy,160,2012-11-18 11:55:00
5:15 AM,50.0,44.6,82,29.76,10.0,SSE,6.9,-,N/A,,Mostly Cloudy,160,2012-11-18 12:15:00
5:35 AM,50.0,44.6,82,29.76,10.0,SSE,3.5,-,N/A,,Mostly Cloudy,160,2012-11-18 12:35:00
5:55 AM,50.0,44.6,82,29.77,10.0,South,8.1,-,N/A,,Overcast,170,2012-11-18 12:55:00
6:15 AM,50.0,44.6,82,29.78,7.0,South,15.0,-,0.06,,Overcast,180,2012-11-18 13:15:00
6:35 AM,48.2,44.6,87,29.78,5.0,South,8.1,20.7,0.13,,Overcast,170,2012-11-18 13:35:00
6:55 AM,48.2,44.6,87,29.78,10.0,SE,4.6,-,0.15,,Overcast,140,2012-11-18 13:55:00
7:15 AM,48.2,44.6,87,29.77,10.0,SE,3.5,-,0.03,,Overcast,140,2012-11-18 14:15:00
7:35 AM,48.2,44.6,87,29.77,7.0,SSE,9.2,-,0.07,,Overcast,160,2012-11-18 14:35:00
7:55 AM,48.2,44.6,87,29.76,7.0,ESE,6.9,-,0.12,,Overcast,120,2012-11-18 14:55:00
8:15 AM,48.2,44.6,87,29.75,10.0,East,5.8,-,0.01,,Overcast,100,2012-11-18 15:15:00
8:35 AM,48.2,44.6,87,29.76,4.0,Calm,Calm,-,0.05,,Overcast,0,2012-11-18 15:35:00
8:55 AM,48.2,46.4,93,29.77,10.0,Calm,Calm,-,0.06,,Overcast,0,2012-11-18 15:55:00
9:15 AM,50.0,46.4,87,29.77,10.0,ESE,4.6,-,N/A,,Overcast,120,2012-11-18 16:15:00
9:35 AM,50.0,46.4,87,29.76,10.0,ESE,4.6,-,N/A,,Overcast,120,2012-11-18 16:35:00
9:55 AM,50.0,46.4,87,29.76,10.0,SSE,6.9,-,N/A,,Overcast,150,2012-11-18 16:55:00
10:15 AM,51.8,46.4,82,29.75,10.0,SE,6.9,-,0.01,,Drizzle,140,2012-11-18 17:15:00
10:35 AM,51.8,46.4,82,29.75,10.0,SE,5.8,-,0.01,Rain,Rain,130,2012-11-18 17:35:00
10:55 AM,50.0,46.4,87,29.75,5.0,SSE,10.4,-,0.01,Rain,Light Rain,150,2012-11-18 17:55:00
11:15 AM,50.0,46.4,87,29.75,7.0,SSE,10.4,-,0.01,Rain,Light Rain,150,2012-11-18 18:15:00
11:35 AM,50.0,46.4,87,29.75,10.0,SSE,10.4,-,0.01,Rain,Light Rain,150,2012-11-18 18:35:00
11:55 AM,50.0,46.4,87,29.75,7.0,SE,9.2,-,0.01,Rain,Light Rain,140,2012-11-18 18:55:00
12:15 PM,50.0,46.4,87,29.74,5.0,SE,8.1,-,0.02,Rain,Rain,140,2012-11-18 19:15:00
12:35 PM,50.0,46.4,87,29.73,5.0,SSE,9.2,-,0.03,Rain,Light Rain,150,2012-11-18 19:35:00
12:55 PM,50.0,46.4,87,29.72,7.0,SE,6.9,-,0.05,Rain,Light Rain,140,2012-11-18 19:55:00
1:15 PM,50.0,46.4,87,29.70,7.0,SE,10.4,16.1,0.02,Rain,Light Rain,140,2012-11-18 20:15:00
1:35 PM,51.8,46.4,82,29.70,7.0,SE,8.1,-,0.04,Rain,Light Rain,130,2012-11-18 20:35:00
1:55 PM,50.0,46.4,87,29.69,7.0,SE,5.8,-,0.06,Rain,Light Rain,140,2012-11-18 20:55:00
2:15 PM,51.8,46.4,82,29.69,7.0,SSE,8.1,11.5,0.02,Rain,Rain,150,2012-11-18 21:15:00
2:35 PM,51.8,46.4,82,29.67,5.0,SE,10.4,-,0.05,Rain,Light Rain,130,2012-11-18 21:35:00
2:55 PM,51.8,46.4,82,29.66,5.0,SE,6.9,-,0.08,Rain,Rain,130,2012-11-18 21:55:00
3:15 PM,51.8,48.2,88,29.65,7.0,SE,9.2,-,0.04,Rain,Rain,140,2012-11-18 22:15:00
3:35 PM,51.8,46.4,82,29.65,5.0,SSE,16.1,26.5,0.07,Rain,Rain,160,2012-11-18 22:35:00
3:55 PM,51.8,48.2,88,29.64,5.0,SE,13.8,21.9,0.12,Rain,Rain,140,2012-11-18 22:55:00
4:15 PM,51.8,46.4,82,29.63,5.0,SSE,12.7,20.7,0.04,Rain,Rain,150,2012-11-18 23:15:00
4:35 PM,51.8,46.4,82,29.62,5.0,SSE,9.2,16.1,0.10,Rain,Rain,150,2012-11-18 23:35:00
4:55 PM,51.8,46.4,82,29.60,5.0,SSE,15.0,19.6,0.15,Rain,Rain,150,2012-11-18 23:55:00
5:15 PM,51.8,46.4,82,29.58,5.0,SSE,13.8,23.0,0.04,Rain,Rain,150,2012-11-19 00:15:00
5:35 PM,51.8,46.4,82,29.58,5.0,SSE,17.3,21.9,0.08,Rain,Rain,150,2012-11-19 00:35:00
5:55 PM,51.8,48.2,88,29.58,7.0,SSE,8.1,-,0.12,Rain,Rain,160,2012-11-19 00:55:00
6:15 PM,51.8,48.2,88,29.57,7.0,South,9.2,18.4,0.03,Rain,Light Rain,170,2012-11-19 01:15:00
6:35 PM,53.6,48.2,82,29.57,10.0,South,16.1,23.0,0.04,Rain,Rain,170,2012-11-19 01:35:00
6:55 PM,53.6,48.2,82,29.57,5.0,South,16.1,25.3,0.07,Rain,Heavy Rain,180,2012-11-19 01:55:00
7:15 PM,53.6,50.0,88,29.57,5.0,South,23.0,32.2,N/A,Rain,Light Rain,170,2012-11-19 02:15:00
7:35 PM,53.6,50.0,88,29.57,5.0,South,25.3,34.5,N/A,Rain,Light Rain,170,2012-11-19 02:35:00
7:55 PM,53.6,50.0,88,29.57,5.0,South,25.3,41.4,N/A,Rain,Light Rain,170,2012-11-19 02:55:00
8:15 PM,53.6,50.0,88,29.57,5.0,South,20.7,38.0,0.03,Rain,Rain,170,2012-11-19 03:15:00
8:35 PM,53.6,50.0,88,29.57,5.0,South,24.2,33.4,0.07,Rain,Rain,170,2012-11-19 03:35:00
8:55 PM,55.4,50.0,82,29.57,7.0,South,19.6,38.0,0.10,Rain,Rain,180,2012-11-19 03:55:00
9:35 PM,53.6,50.0,88,29.56,5.0,South,24.2,29.9,0.07,Rain,Rain,170,2012-11-19 04:35:00
10:15 PM,55.4,51.8,88,29.58,4.0,South,21.9,29.9,0.10,Rain,Heavy Rain,170,2012-11-19 05:15:00
10:35 PM,55.4,51.8,88,29.57,5.0,South,18.4,28.8,0.20,Rain,Heavy Rain,180,2012-11-19 05:35:00
10:55 PM,55.4,51.8,88,29.58,5.0,South,15.0,24.2,0.28,Rain,Heavy Rain,190,2012-11-19 05:55:00
11:15 PM,55.4,51.8,88,29.57,4.0,South,18.4,33.4,0.09,Rain,Heavy Rain,190,2012-11-19 06:15:00
11:35 PM,57.2,51.8,82,29.57,4.0,SSW,28.8,39.1,0.20,Rain,Heavy Rain,200,2012-11-19 06:35:00
11:55 PM,55.4,51.8,88,29.58,4.0,SW,12.7,33.4,0.30,Rain,Rain,220,2012-11-19 06:55:00